[Date Prev][Date Next][Thread Prev][Thread Next] - [Date Index][Thread Index][Author Index]

2 Line ISS Keps 11-5



ISS
1 25544U 98067A   02310.14145438  .00045437  00000-0  59196-3 0  3424
2 25544  51.6383  60.2201 0014361 108.2059 317.5295 15.58148306226114


----
Via the sarex mailing list at AMSAT.ORG courtesy of AMSAT-NA.
To unsubscribe, send "unsubscribe sarex" to Majordomo@amsat.org



AMSAT Top AMSAT Home